Location: Enborne
(51.3833°N, 1.3667°W)
Time: 13:08:18
(UTC+00:00)

USA 238 - Pass Details

Date: 18 September 2020
Orbit: 1006 x 1206 km, 63.4° (Epoch: 15 October)

Event Time Altitude Azimuth Distance (km) Brightness Sun altitude
Rises 19:30:13 0° 314° (NW) 3,917 7.9 -12.8°
Reaches altitude 10° 19:32:51 10° 315° (NW) 2,985 7.1 -13.2°
Maximum altitude 19:40:01 81° 44° (NE) 1,171 3.8 -14.2°
Enters shadow 19:45:44 19° 130° (SE) 2,501 5.1 -15.0°
